This demonstration page uses our WeatherBlox Daily Observations layout. Learn more.

Left ArrowRight Arrow

Hourly Observations for March 30, 2018

Temp ( °F °C ) Dew Point ( °F °C ) Humidity (%) Winds ( mph kmh ) Pressure ( in mb ) Visibility ( mi km ) Precip ( " mm )
12:59 am 00:59 Mostly Cloudy 69 20.6 57 13.9 66 66 SSW 16 26 29.91 1013 10 16 0.00 0.00
1:59 am 01:59 Mostly Cloudy 69 20.6 58 14.4 68 68 SSW 15 24 29.90 1013 10 16 0.00 0.00
2:59 am 02:59 Mostly Cloudy 68 20 58 14.4 70 70 SSW 13 20 29.89 1012 10 16 0.00 0.00
3:59 am 03:59 Cloudy 68 20 58 14.4 70 70 SSW 10 17 29.89 1012 10 16 0.00 0.00
4:59 am 04:59 Mostly Cloudy 68 20 58 14.4 70 70 SSW 13 20 29.87 1012 10 16 0.00 0.00
5:59 am 05:59 Mostly Cloudy 67 19.4 58 14.4 73 73 SSW 14 22 29.85 1011 10 16 0.00 0.00
6:59 am 06:59 Mostly Cloudy 67 19.4 59 15 76 76 SSW 14 22 29.87 1011 10 16 0.00 0.00
7:59 am 07:59 Cloudy 69 20.6 60 15.6 73 73 SSW 17 28 29.85 1011 10 16 0.00 0.00
8:59 am 08:59 Cloudy 69 20.6 60 15.6 73 73 SSW 18 30 29.85 1011 10 16 0.00 0.00
9:22 am 09:22 Cloudy 69 20.6 60 15.6 73 73 SW 16 26 29.88 1012 10 16 0.00 0.00
9:59 am 09:59 Cloudy 70 21.1 61 16.1 73 73 SW 16 26 29.86 1011 10 16 0.00 0.00
10:59 am 10:59 Cloudy 69 20.6 62 16.7 78 78 SW 18 30 29.88 1012 10 16 0.00 0.03
11:59 am 11:59 Cloudy 67 19.4 63 17.2 87 87 SW 12 19 29.86 1011 9 14 0.02 0.51
12:40 pm 12:40 Cloudy 67 19.4 62 16.7 84 84 SW 18 30 29.85 1011 8 13 0.00 0.00
12:59 pm 12:59 Cloudy 67 19.4 63 17.2 87 87 SW 16 26 29.85 1011 10 16 0.00 0.00
1:59 pm 13:59 Cloudy 70 21.1 62 16.7 76 76 SW 17 28 29.83 1010 10 16 0.00 0.00
2:59 pm 14:59 Cloudy 71 21.7 59 15 66 66 WSW 20 31 29.82 1010 10 16 0.00 0.00
3:59 pm 15:59 Cloudy 71 21.7 58 14.4 63 63 SW 13 20 29.82 1010 10 16 0.00 0.00
4:59 pm 16:59 Cloudy 70 21.1 58 14.4 66 66 SW 13 20 29.82 1010 10 16 0.00 0.00
5:59 pm 17:59 Cloudy 69 20.6 57 13.9 66 66 SW 7 11 29.84 1011 10 16 0.00 0.00
6:59 pm 18:59 Cloudy with Light Rain 56 13.3 50 10 81 81 NNE 24 39 29.92 1013 7 11 0.01 0.25
7:59 pm 19:59 Cloudy 54 12.2 48 8.9 80 80 NNE 12 19 29.98 1015 10 16 0.00 0.03
8:59 pm 20:59 Partly Cloudy 55 12.8 41 5 59 59 N 18 30 30.03 1017 10 16 0.00 0.00
9:59 pm 21:59 Mostly Cloudy 54 12.2 40 4.4 59 59 NNW 18 30 30.08 1019 10 16 0.00 0.00
10:59 pm 22:59 Mostly Cloudy 53 11.7 39 3.9 59 59 N 14 22 30.11 1020 10 16 0.00 0.00
11:59 pm 23:59 Mostly Cloudy 52 11.1 37 2.8 57 57 NNW 13 20 30.15 1021 10 16 0.00 0.00

Powered by AerisWeather